Weather History for Campeche, Mexico

Change the Weather History Date:

Wednesday, March 20, 2013

  Actual Average Record
Temperature  
Mean Temperature 85 °F -  
Max Temperature 98 °F 89 °F 98 °F (2013)
Min Temperature 72 °F 70 °F 60 °F (2007)
Cooling Degree Days 20    
Growing Degree Days 35 (Base 50)    
Moisture  
Dew Point 73 °F    
Average Humidity 75    
Maximum Humidity 89    
Minimum Humidity 45    
Precipitation  
Precipitation 0.00 in - - ()
Sea Level Pressure  
Sea Level Pressure 29.82 in    
Wind  
Wind Speed 7 mph ()    
Max Wind Speed 29 mph    
Max Gust Speed 40 mph    
Visibility 6.3 miles    
Events      
Averages and records for this station are not official NWS values.
T = Trace of Precipitation, MM = Missing Value Source: Averaged Metar Reports

Daily Weather History Graph

Daily Weather History Graph

Search for Another Location

Airport:

Trip Planner

Search our weather history database for the weather conditions in past years. The results will help you decide how hot, cold, wet, or windy it might be!

Date:

Astronomy

Mar. 20, 2013 Rise Set
Actual Time 6:05 AM CST 6:13 PM CST
Civil Twilight 5:43 AM CST 6:35 PM CST
Nautical Twilight 5:18 AM CST 7:00 PM CST
Astronomical Twilight 4:52 AM CST 7:26 PM CST
Moon 12:29 PM CST (3/20) 1:03 AM CST (3/20)
Length of Visible Light 12h 51m
Length of Day
12h 07m
First Quarter, 60% of the Moon is Illuminated
Mar 20
First Quarter
Mar 27
Full
Apr 2
Last Quarter
Apr 10
New
Apr 18
First Quarter

Hourly Weather History & Observations

Time (CST) Temp. Heat Index Dew Point Humidity Pressure Visibility Wind Dir Wind Speed Gust Speed Precip Events Conditions
2:50 AM 77 °F - 72 °F 81% 29.81 in 4 mi ESE 8.9 mph - -  
5:12 AM 75.2 °F - 71.6 °F 89% 29.83 in 7.0 mi ESE 4.6 mph - N/A   Clear
5:48 AM 73 °F - 71 °F 89% 29.84 in 4 mi Calm Calm - -   Scattered Clouds
5:48 AM 75.2 °F - 71.6 °F 89% 29.84 in 7.0 mi ESE 4.6 mph - N/A   Partly Cloudy
6:47 AM 75.2 °F - 71.6 °F 89% 29.85 in 7.0 mi ESE 5.8 mph - N/A   Partly Cloudy
7:43 AM 77.0 °F - 71.6 °F 83% 29.86 in 7.0 mi ESE 11.5 mph - N/A   Partly Cloudy
8:48 AM 85 °F - 76 °F 67% 29.86 in 6 mi East 4.5 mph - -  
8:53 AM 82.4 °F 88.2 °F 73.4 °F 74% 29.86 in 7.0 mi ESE 5.8 mph - N/A   Partly Cloudy
9:42 AM 86.0 °F 93.4 °F 73.4 °F 66% 29.85 in 7.0 mi ESE 6.9 mph - N/A   Partly Cloudy
10:45 AM 91.4 °F 98.4 °F 71.6 °F 52% 29.83 in 7.0 mi East 6.9 mph - N/A   Partly Cloudy
11:42 AM 89.6 °F 96.2 °F 71.6 °F 55% 29.81 in 7.0 mi North 4.6 mph - N/A   Partly Cloudy
11:50 AM 95 °F - 76 °F 45% 29.81 in 6 mi West 4.5 mph - -  
12:42 PM 87.8 °F 95.6 °F 73.4 °F 62% 29.78 in 7.0 mi WNW 15.0 mph - N/A   Scattered Clouds
1:41 PM 87.8 °F 95.6 °F 73.4 °F 62% 29.76 in 7.0 mi WNW 11.5 mph - N/A   Scattered Clouds
2:42 PM 87.8 °F 95.6 °F 73.4 °F 62% 29.75 in 7.0 mi WNW 11.5 mph 23.0 mph N/A   Scattered Clouds
2:50 PM 87 °F - 78 °F 68% 29.77 in 6 mi WNW 6.7 mph - -   Scattered Clouds
3:42 PM 84.2 °F 92.3 °F 75.2 °F 74% 29.74 in 7.0 mi West 11.5 mph 23.0 mph N/A   Scattered Clouds
4:41 PM 84.2 °F 90.9 °F 73.4 °F 70% 29.76 in 7.0 mi NW 11.5 mph 23.0 mph N/A   Mostly Cloudy
5:40 PM 82.4 °F 88.2 °F 73.4 °F 74% 29.78 in 7.0 mi NNW 11.5 mph 23.0 mph N/A   Mostly Cloudy
5:50 PM 83 °F - 77 °F 76% 29.79 in 6 mi NW 6.7 mph - -   Scattered Clouds
6:41 PM 78.8 °F - 75.2 °F 89% 29.81 in 5.0 mi North 23.0 mph 34.5 mph N/A   Overcast
7:01 PM 78.8 °F - 73.4 °F 83% 29.81 in 6.0 mi North 28.8 mph 40.3 mph N/A   Scattered Clouds
7:41 PM 78.8 °F - 73.4 °F 83% 29.83 in 7.0 mi North 11.5 mph 23.0 mph N/A   Partly Cloudy
8:42 PM 77.0 °F - 71.6 °F 83% 29.85 in 7.0 mi North 11.5 mph - N/A   Clear
8:50 PM 78 °F - 71 °F 75% 29.87 in 4 mi North 6.7 mph - -  
9:40 PM 77.0 °F - 71.6 °F 83% 29.90 in 7.0 mi Calm Calm - N/A   Clear
10:42 PM 77.0 °F - 71.6 °F 83% 29.89 in 7.0 mi ENE 11.5 mph - N/A   Clear
11:41 PM 77.0 °F - 71.6 °F 83% 29.85 in 7.0 mi NE 5.8 mph - N/A   Clear
11:48 PM 77 °F - 71 °F 76% 29.86 in 4 mi ENE 2.2 mph - -